contact:dominique.lefevre@mio.osupytheas.fr, maurice.libes@osupytheas.fr, didier.mallarino@osupytheas.fr
Project:EMSO http://www.emso-fr.org/EMSO-France
Depth: 2436.0 m
Title:EMSO Ligure Ouest : Data MII capteur CSTAR
DateTime,Latitude,Longitude,Instrument_Serial,Reference_Counts,Signal_Counts,Corrected_Signal_raw_counts,Calculated_Beam_c_inverse_meters,Internal_thermistor_counts
DateTime,Latitude,Longitude,Instrument_Serial,Reference_Counts,Signal_Counts,Corrected_Signal_raw_counts,Calculated_Beam_c_inverse_meters,Internal_thermistor_counts
2020-02-16T00:02:34,42.805,6.029,CST-1368DR,6774,9491,15227,0.101,550
2020-02-16T00:05:35,42.805,6.029,CST-1368DR,6774,9490,15225,0.101,551
2020-02-16T00:08:37,42.805,6.029,CST-1368DR,6774,9490,15226,0.101,551
2020-02-16T00:11:39,42.805,6.029,CST-1368DR,6774,9491,15227,0.101,551
2020-02-16T00:14:40,42.805,6.029,CST-1368DR,6774,9492,15228,0.101,551
2020-02-16T00:17:42,42.805,6.029,CST-1368DR,6774,9489,15224,0.102,551
2020-02-16T00:20:44,42.805,6.029,CST-1368DR,6774,9491,15227,0.101,551
2020-02-16T00:23:45,42.805,6.029,CST-1368DR,6774,9491,15227,0.101,551
2020-02-16T00:26:47,42.805,6.029,CST-1368DR,6774,9492,15228,0.101,551
2020-02-16T00:29:49,42.805,6.029,CST-1368DR,6774,9492,15228,0.101,551
2020-02-16T00:32:50,42.805,6.029,CST-1368DR,6773,9492,15231,0.100,551
2020-02-16T00:35:52,42.805,6.029,CST-1368DR,6774,9492,15228,0.101,550
2020-02-16T00:38:53,42.805,6.029,CST-1368DR,6773,9491,15229,0.100,551
2020-02-16T00:41:55,42.805,6.029,CST-1368DR,6773,9492,15230,0.100,551
2020-02-16T00:44:57,42.805,6.029,CST-1368DR,6774,9491,15227,0.101,551
2020-02-16T00:47:58,42.805,6.029,CST-1368DR,6774,9490,15226,0.101,551
2020-02-16T00:51:00,42.805,6.029,CST-1368DR,6773,9491,15229,0.100,551
2020-02-16T00:54:02,42.805,6.029,CST-1368DR,6773,9490,15227,0.101,551
2020-02-16T00:57:03,42.805,6.029,CST-1368DR,6773,9491,15229,0.100,551
2020-02-16T01:00:05,42.805,6.029,CST-1368DR,6773,9491,15229,0.100,551
2020-02-16T01:03:06,42.805,6.029,CST-1368DR,6773,9490,15227,0.101,551
2020-02-16T01:06:08,42.805,6.029,CST-1368DR,6773,9491,15229,0.100,551
2020-02-16T01:09:10,42.805,6.029,CST-1368DR,6773,9488,15223,0.102,551
2020-02-16T01:12:11,42.805,6.029,CST-1368DR,6773,9491,15229,0.100,550
2020-02-16T01:15:13,42.805,6.029,CST-1368DR,6773,9491,15229,0.100,551
2020-02-16T01:18:15,42.805,6.029,CST-1368DR,6773,9491,15229,0.100,551
2020-02-16T01:21:16,42.805,6.029,CST-1368DR,6773,9491,15229,0.100,551
2020-02-16T01:24:18,42.805,6.029,CST-1368DR,6773,9492,15231,0.100,551
2020-02-16T01:27:19,42.805,6.029,CST-1368DR,6773,9485,15219,0.103,551
2020-02-16T01:30:21,42.805,6.029,CST-1368DR,6773,9492,15230,0.100,551
2020-02-16T01:33:23,42.805,6.029,CST-1368DR,6773,9491,15228,0.101,551
2020-02-16T01:36:24,42.805,6.029,CST-1368DR,6773,9488,15224,0.102,551
2020-02-16T01:39:26,42.805,6.029,CST-1368DR,6773,9491,15229,0.100,551
2020-02-16T01:42:28,42.805,6.029,CST-1368DR,6773,9491,15229,0.100,551
2020-02-16T01:45:29,42.805,6.029,CST-1368DR,6773,9491,15229,0.100,550
2020-02-16T01:48:31,42.805,6.029,CST-1368DR,6773,9490,15227,0.101,551
2020-02-16T01:51:33,42.805,6.029,CST-1368DR,6773,9490,15227,0.101,551
2020-02-16T01:54:34,42.805,6.029,CST-1368DR,6773,9491,15228,0.101,551
2020-02-16T01:57:36,42.805,6.029,CST-1368DR,6773,9488,15224,0.102,551
2020-02-16T02:00:38,42.805,6.029,CST-1368DR,6773,9491,15229,0.100,551
2020-02-16T02:03:39,42.805,6.029,CST-1368DR,6773,9491,15228,0.101,551
2020-02-16T02:06:41,42.805,6.029,CST-1368DR,6773,9491,15229,0.100,551
2020-02-16T02:09:43,42.805,6.029,CST-1368DR,6773,9491,15229,0.100,551
2020-02-16T02:12:44,42.805,6.029,CST-1368DR,6773,9491,15229,0.100,551
2020-02-16T02:15:46,42.805,6.029,CST-1368DR,6773,9492,15230,0.100,551
2020-02-16T02:18:48,42.805,6.029,CST-1368DR,6773,9490,15227,0.101,551
2020-02-16T02:21:49,42.805,6.029,CST-1368DR,6773,9491,15229,0.100,551
2020-02-16T02:24:51,42.805,6.029,CST-1368DR,6773,9492,15230,0.100,551
2020-02-16T02:27:52,42.805,6.029,CST-1368DR,6773,9492,15230,0.100,551
2020-02-16T02:30:55,42.805,6.029,CST-1368DR,6773,9492,15230,0.100,551
2020-02-16T02:33:56,42.805,6.029,CST-1368DR,6773,9492,15231,0.100,551
2020-02-16T02:36:58,42.805,6.029,CST-1368DR,6773,9490,15227,0.101,551
2020-02-16T02:40:00,42.805,6.029,CST-1368DR,6773,9491,15228,0.101,551
2020-02-16T02:43:01,42.805,6.029,CST-1368DR,6773,9489,15225,0.101,551
2020-02-16T02:46:03,42.805,6.029,CST-1368DR,6773,9491,15229,0.100,551
2020-02-16T02:49:05,42.805,6.029,CST-1368DR,6773,9489,15226,0.101,551
2020-02-16T02:52:06,42.805,6.029,CST-1368DR,6773,9492,15230,0.100,551
2020-02-16T02:55:08,42.805,6.029,CST-1368DR,6773,9491,15229,0.100,551
2020-02-16T02:58:10,42.805,6.029,CST-1368DR,6773,9490,15228,0.101,551
2020-02-16T03:01:11,42.805,6.029,CST-1368DR,6773,9490,15228,0.101,551
2020-02-16T03:04:13,42.805,6.029,CST-1368DR,6773,9490,15228,0.101,551
2020-02-16T03:07:15,42.805,6.029,CST-1368DR,6773,9489,15225,0.101,551
2020-02-16T03:10:16,42.805,6.029,CST-1368DR,6773,9489,15225,0.101,551
2020-02-16T03:13:18,42.805,6.029,CST-1368DR,6773,9488,15224,0.102,551
2020-02-16T03:16:20,42.805,6.029,CST-1368DR,6773,9490,15228,0.101,551
2020-02-16T03:19:21,42.805,6.029,CST-1368DR,6773,9490,15227,0.101,551
2020-02-16T03:22:23,42.805,6.029,CST-1368DR,6773,9491,15229,0.100,551
2020-02-16T03:25:25,42.805,6.029,CST-1368DR,6773,9490,15227,0.101,551
2020-02-16T03:28:27,42.805,6.029,CST-1368DR,6773,9490,15227,0.101,551
2020-02-16T03:31:28,42.805,6.029,CST-1368DR,6773,9491,15228,0.101,550
2020-02-16T03:34:30,42.805,6.029,CST-1368DR,6773,9491,15229,0.100,551
2020-02-16T03:37:31,42.805,6.029,CST-1368DR,6773,9489,15225,0.101,551
2020-02-16T03:40:33,42.805,6.029,CST-1368DR,6773,9492,15231,0.100,551
2020-02-16T03:43:35,42.805,6.029,CST-1368DR,6773,9490,15227,0.101,550
2020-02-16T03:46:36,42.805,6.029,CST-1368DR,6773,9491,15229,0.100,551
2020-02-16T03:49:38,42.805,6.029,CST-1368DR,6773,9491,15229,0.100,551
2020-02-16T03:52:40,42.805,6.029,CST-1368DR,6773,9491,15228,0.101,551
2020-02-16T03:55:41,42.805,6.029,CST-1368DR,6773,9490,15227,0.101,551
2020-02-16T03:58:43,42.805,6.029,CST-1368DR,6773,9491,15229,0.100,551
2020-02-16T04:01:44,42.805,6.029,CST-1368DR,6773,9491,15229,0.100,551
2020-02-16T04:04:46,42.805,6.029,CST-1368DR,6773,9491,15229,0.100,551
2020-02-16T04:07:48,42.805,6.029,CST-1368DR,6773,9491,15228,0.101,551
2020-02-16T04:10:49,42.805,6.029,CST-1368DR,6773,9492,15230,0.100,551
2020-02-16T04:13:51,42.805,6.029,CST-1368DR,6772,9490,15230,0.100,551
2020-02-16T04:16:53,42.805,6.029,CST-1368DR,6773,9492,15230,0.100,551
2020-02-16T04:19:54,42.805,6.029,CST-1368DR,6773,9491,15229,0.100,551
2020-02-16T04:22:56,42.805,6.029,CST-1368DR,6772,9491,15231,0.100,551
2020-02-16T04:25:57,42.805,6.029,CST-1368DR,6772,9491,15232,0.100,551
2020-02-16T04:28:59,42.805,6.029,CST-1368DR,6772,9491,15232,0.100,551
2020-02-16T04:32:01,42.805,6.029,CST-1368DR,6773,9492,15231,0.100,551
2020-02-16T04:35:02,42.805,6.029,CST-1368DR,6772,9491,15231,0.100,551
2020-02-16T04:38:04,42.805,6.029,CST-1368DR,6772,9488,15226,0.101,551
2020-02-16T04:41:06,42.805,6.029,CST-1368DR,6773,9492,15230,0.100,551
2020-02-16T04:44:07,42.805,6.029,CST-1368DR,6772,9491,15231,0.100,550
2020-02-16T04:47:09,42.805,6.029,CST-1368DR,6772,9477,15208,0.106,551
2020-02-16T04:50:10,42.805,6.029,CST-1368DR,6772,9491,15232,0.100,551
2020-02-16T04:53:12,42.805,6.029,CST-1368DR,6772,9488,15226,0.101,551
2020-02-16T04:56:14,42.805,6.029,CST-1368DR,6772,9489,15228,0.101,551
2020-02-16T04:59:15,42.805,6.029,CST-1368DR,6772,9491,15231,0.100,551
2020-02-16T05:02:17,42.805,6.029,CST-1368DR,6772,9489,15227,0.101,551
2020-02-16T05:05:19,42.805,6.029,CST-1368DR,6772,9490,15230,0.100,551
2020-02-16T05:08:20,42.805,6.029,CST-1368DR,6772,9491,15231,0.100,551
2020-02-16T05:11:22,42.805,6.029,CST-1368DR,6772,9490,15229,0.100,551
2020-02-16T05:14:23,42.805,6.029,CST-1368DR,6772,9490,15230,0.100,551
2020-02-16T05:17:25,42.805,6.029,CST-1368DR,6772,9490,15229,0.100,551
2020-02-16T05:20:27,42.805,6.029,CST-1368DR,6772,9489,15228,0.101,551
2020-02-16T05:23:28,42.805,6.029,CST-1368DR,6772,9490,15230,0.100,550
2020-02-16T05:26:30,42.805,6.029,CST-1368DR,6772,9489,15228,0.101,551
2020-02-16T05:29:32,42.805,6.029,CST-1368DR,6772,9491,15231,0.100,551
2020-02-16T05:32:33,42.805,6.029,CST-1368DR,6772,9490,15229,0.100,551
2020-02-16T05:35:35,42.805,6.029,CST-1368DR,6772,9491,15232,0.100,551
2020-02-16T05:38:36,42.805,6.029,CST-1368DR,6772,9491,15231,0.100,551
2020-02-16T05:41:38,42.805,6.029,CST-1368DR,6772,9488,15226,0.101,551
2020-02-16T05:44:40,42.805,6.029,CST-1368DR,6772,9490,15229,0.100,551
2020-02-16T05:47:41,42.805,6.029,CST-1368DR,6772,9490,15229,0.100,551
2020-02-16T05:50:43,42.805,6.029,CST-1368DR,6772,9489,15227,0.101,551
2020-02-16T05:53:45,42.805,6.029,CST-1368DR,6772,9490,15230,0.100,551
2020-02-16T05:56:46,42.805,6.029,CST-1368DR,6772,9490,15229,0.100,551
2020-02-16T05:59:48,42.805,6.029,CST-1368DR,6772,9488,15226,0.101,551
2020-02-16T06:02:49,42.805,6.029,CST-1368DR,6772,9488,15226,0.101,551
2020-02-16T06:05:51,42.805,6.029,CST-1368DR,6772,9488,15226,0.101,551
2020-02-16T06:08:53,42.805,6.029,CST-1368DR,6772,9489,15228,0.101,551
2020-02-16T06:11:54,42.805,6.029,CST-1368DR,6772,9489,15228,0.101,551
2020-02-16T06:14:56,42.805,6.029,CST-1368DR,6772,9490,15229,0.100,551
2020-02-16T06:17:58,42.805,6.029,CST-1368DR,6772,9489,15228,0.101,551
2020-02-16T06:20:59,42.805,6.029,CST-1368DR,6772,9489,15228,0.101,551
2020-02-16T06:24:01,42.805,6.029,CST-1368DR,6772,9490,15229,0.100,551
2020-02-16T06:27:03,42.805,6.029,CST-1368DR,6772,9490,15229,0.100,551
2020-02-16T06:30:04,42.805,6.029,CST-1368DR,6772,9490,15229,0.100,551
2020-02-16T06:33:06,42.805,6.029,CST-1368DR,6772,9488,15226,0.101,551
2020-02-16T06:36:08,42.805,6.029,CST-1368DR,6772,9489,15228,0.101,551
2020-02-16T06:39:09,42.805,6.029,CST-1368DR,6772,9489,15227,0.101,551
2020-02-16T06:42:11,42.805,6.029,CST-1368DR,6772,9489,15227,0.101,551
2020-02-16T06:45:13,42.805,6.029,CST-1368DR,6772,9487,15225,0.101,551
2020-02-16T06:48:14,42.805,6.029,CST-1368DR,6772,9490,15229,0.100,551
2020-02-16T06:51:16,42.805,6.029,CST-1368DR,6772,9489,15228,0.101,551
2020-02-16T06:54:18,42.805,6.029,CST-1368DR,6772,9490,15229,0.100,551
2020-02-16T06:57:19,42.805,6.029,CST-1368DR,6772,9487,15224,0.102,551
2020-02-16T07:00:21,42.805,6.029,CST-1368DR,6772,9489,15228,0.101,551
2020-02-16T07:03:23,42.805,6.029,CST-1368DR,6772,9489,15228,0.101,551
2020-02-16T07:06:24,42.805,6.029,CST-1368DR,6772,9489,15228,0.101,551
2020-02-16T07:09:26,42.805,6.029,CST-1368DR,6772,9490,15230,0.100,551
2020-02-16T07:12:28,42.805,6.029,CST-1368DR,6772,9490,15230,0.100,551
2020-02-16T07:15:29,42.805,6.029,CST-1368DR,6772,9490,15229,0.100,551
2020-02-16T07:18:31,42.805,6.029,CST-1368DR,6772,9489,15228,0.101,551
2020-02-16T07:21:32,42.805,6.029,CST-1368DR,6772,9488,15226,0.101,551
2020-02-16T07:24:34,42.805,6.029,CST-1368DR,6772,9489,15228,0.101,551
2020-02-16T07:27:36,42.805,6.029,CST-1368DR,6772,9489,15227,0.101,551
2020-02-16T07:30:37,42.805,6.029,CST-1368DR,6772,9491,15231,0.100,551
2020-02-16T07:33:39,42.805,6.029,CST-1368DR,6772,9490,15230,0.100,551
2020-02-16T07:36:41,42.805,6.029,CST-1368DR,6772,9490,15229,0.100,551
2020-02-16T07:39:42,42.805,6.029,CST-1368DR,6772,9489,15228,0.101,551
2020-02-16T07:42:44,42.805,6.029,CST-1368DR,6772,9485,15222,0.102,551
2020-02-16T07:45:46,42.805,6.029,CST-1368DR,6772,9491,15230,0.100,551
2020-02-16T07:48:47,42.805,6.029,CST-1368DR,6772,9490,15229,0.100,551
2020-02-16T07:51:49,42.805,6.029,CST-1368DR,6772,9490,15230,0.100,551
2020-02-16T07:54:51,42.805,6.029,CST-1368DR,6772,9490,15230,0.100,551
2020-02-16T07:57:52,42.805,6.029,CST-1368DR,6772,9489,15228,0.101,551
2020-02-16T08:00:55,42.805,6.029,CST-1368DR,6772,9490,15230,0.100,551
2020-02-16T08:03:56,42.805,6.029,CST-1368DR,6772,9490,15230,0.100,551
2020-02-16T08:06:58,42.805,6.029,CST-1368DR,6772,9490,15230,0.100,551
2020-02-16T08:09:59,42.805,6.029,CST-1368DR,6772,9491,15231,0.100,551
2020-02-16T08:13:01,42.805,6.029,CST-1368DR,6772,9491,15231,0.100,550
2020-02-16T08:16:03,42.805,6.029,CST-1368DR,6772,9492,15232,0.100,551
2020-02-16T08:19:04,42.805,6.029,CST-1368DR,6772,9492,15233,0.099,551
2020-02-16T08:22:06,42.805,6.029,CST-1368DR,6772,9492,15233,0.099,551
2020-02-16T08:25:08,42.805,6.029,CST-1368DR,6772,9491,15231,0.100,551
2020-02-16T08:28:09,42.805,6.029,CST-1368DR,6772,9492,15232,0.100,551
2020-02-16T08:31:11,42.805,6.029,CST-1368DR,6772,9492,15233,0.099,550
2020-02-16T08:34:13,42.805,6.029,CST-1368DR,6772,9492,15233,0.099,551
2020-02-16T08:37:14,42.805,6.029,CST-1368DR,6772,9492,15232,0.100,551
2020-02-16T08:40:16,42.805,6.029,CST-1368DR,6772,9494,15236,0.099,551
2020-02-16T08:43:17,42.805,6.029,CST-1368DR,6772,9493,15234,0.099,551
2020-02-16T08:46:19,42.805,6.029,CST-1368DR,6772,9494,15235,0.099,551
2020-02-16T08:49:21,42.805,6.029,CST-1368DR,6772,9486,15223,0.102,551
2020-02-16T08:52:23,42.805,6.029,CST-1368DR,6772,9491,15232,0.100,551
2020-02-16T08:55:24,42.805,6.029,CST-1368DR,6772,9493,15234,0.099,551
2020-02-16T08:58:26,42.805,6.029,CST-1368DR,6771,9492,15234,0.099,551
2020-02-16T09:01:28,42.805,6.029,CST-1368DR,6771,9493,15236,0.099,551
2020-02-16T09:04:29,42.805,6.029,CST-1368DR,6772,9493,15234,0.099,551
2020-02-16T09:07:31,42.805,6.029,CST-1368DR,6771,9493,15236,0.099,551
2020-02-16T09:10:32,42.805,6.029,CST-1368DR,6771,9491,15233,0.099,551
2020-02-16T09:13:34,42.805,6.029,CST-1368DR,6771,9493,15236,0.099,551
2020-02-16T09:16:36,42.805,6.029,CST-1368DR,6771,9492,15235,0.099,551
2020-02-16T09:19:37,42.805,6.029,CST-1368DR,6771,9493,15236,0.099,551
2020-02-16T09:22:39,42.805,6.029,CST-1368DR,6771,9493,15236,0.099,551
2020-02-16T09:25:41,42.805,6.029,CST-1368DR,6771,9493,15236,0.099,551
2020-02-16T09:28:42,42.805,6.029,CST-1368DR,6772,9492,15233,0.099,551
2020-02-16T09:31:44,42.805,6.029,CST-1368DR,6771,9493,15236,0.099,551
2020-02-16T09:34:46,42.805,6.029,CST-1368DR,6771,9492,15234,0.099,551
2020-02-16T09:37:47,42.805,6.029,CST-1368DR,6771,9493,15236,0.099,551
2020-02-16T09:40:49,42.805,6.029,CST-1368DR,6771,9493,15236,0.099,551
2020-02-16T09:43:51,42.805,6.029,CST-1368DR,6771,9493,15236,0.099,551
2020-02-16T09:46:52,42.805,6.029,CST-1368DR,6771,9492,15235,0.099,551
2020-02-16T09:49:54,42.805,6.029,CST-1368DR,6771,9493,15236,0.099,551
2020-02-16T09:52:56,42.805,6.029,CST-1368DR,6771,9492,15234,0.099,551
2020-02-16T09:55:57,42.805,6.029,CST-1368DR,6771,9490,15232,0.100,551
2020-02-16T09:58:59,42.805,6.029,CST-1368DR,6771,9493,15236,0.099,551
2020-02-16T10:02:01,42.805,6.029,CST-1368DR,6771,9493,15236,0.099,551
2020-02-16T10:05:02,42.805,6.029,CST-1368DR,6771,9493,15236,0.099,551
2020-02-16T10:08:04,42.805,6.029,CST-1368DR,6771,9493,15236,0.099,551
2020-02-16T10:11:05,42.805,6.029,CST-1368DR,6771,9494,15238,0.098,551
2020-02-16T10:14:07,42.805,6.029,CST-1368DR,6771,9494,15237,0.098,551
2020-02-16T10:17:09,42.805,6.029,CST-1368DR,6771,9494,15238,0.098,551
2020-02-16T10:20:10,42.805,6.029,CST-1368DR,6771,9492,15234,0.099,551
2020-02-16T10:23:12,42.805,6.029,CST-1368DR,6771,9492,15234,0.099,551
2020-02-16T10:26:14,42.805,6.029,CST-1368DR,6771,9485,15224,0.102,551
2020-02-16T10:29:15,42.805,6.029,CST-1368DR,6771,9493,15236,0.099,551
2020-02-16T10:32:17,42.805,6.029,CST-1368DR,6771,9494,15237,0.098,551
2020-02-16T10:35:19,42.805,6.029,CST-1368DR,6771,9494,15237,0.098,551
2020-02-16T10:38:20,42.805,6.029,CST-1368DR,6771,9492,15234,0.099,551
2020-02-16T10:41:22,42.805,6.029,CST-1368DR,6771,9493,15236,0.099,551
2020-02-16T10:44:23,42.805,6.029,CST-1368DR,6771,9489,15229,0.100,551
2020-02-16T10:47:25,42.805,6.029,CST-1368DR,6771,9492,15234,0.099,551
2020-02-16T10:50:27,42.805,6.029,CST-1368DR,6771,9492,15234,0.099,551
2020-02-16T10:53:28,42.805,6.029,CST-1368DR,6771,9492,15234,0.099,551
2020-02-16T10:56:30,42.805,6.029,CST-1368DR,6771,9492,15234,0.099,551
2020-02-16T10:59:32,42.805,6.029,CST-1368DR,6771,9492,15235,0.099,551
2020-02-16T11:02:33,42.805,6.029,CST-1368DR,6771,9493,15236,0.099,551
2020-02-16T11:05:35,42.805,6.029,CST-1368DR,6771,9493,15236,0.099,551
2020-02-16T11:08:37,42.805,6.029,CST-1368DR,6771,9494,15238,0.098,551
2020-02-16T11:11:38,42.805,6.029,CST-1368DR,6771,9492,15235,0.099,551
2020-02-16T11:14:40,42.805,6.029,CST-1368DR,6771,9491,15234,0.099,551
2020-02-16T11:17:42,42.805,6.029,CST-1368DR,6771,9494,15237,0.098,551
2020-02-16T11:20:43,42.805,6.029,CST-1368DR,6771,9494,15237,0.098,550
2020-02-16T11:23:45,42.805,6.029,CST-1368DR,6771,9491,15234,0.099,551
2020-02-16T11:26:47,42.805,6.029,CST-1368DR,6771,9493,15236,0.099,551
2020-02-16T11:29:48,42.805,6.029,CST-1368DR,6771,9493,15236,0.099,551
2020-02-16T11:32:50,42.805,6.029,CST-1368DR,6771,9492,15235,0.099,551
2020-02-16T11:35:51,42.805,6.029,CST-1368DR,6771,9493,15236,0.099,551
2020-02-16T11:38:53,42.805,6.029,CST-1368DR,6771,9493,15236,0.099,551
2020-02-16T11:41:55,42.805,6.029,CST-1368DR,6771,9493,15236,0.099,551
2020-02-16T11:44:56,42.805,6.029,CST-1368DR,6771,9492,15235,0.099,551
2020-02-16T11:47:58,42.805,6.029,CST-1368DR,6771,9492,15235,0.099,551
2020-02-16T11:51:00,42.805,6.029,CST-1368DR,6771,9493,15236,0.099,551
2020-02-16T11:54:01,42.805,6.029,CST-1368DR,6771,9492,15235,0.099,551
2020-02-16T11:57:03,42.805,6.029,CST-1368DR,6771,9493,15236,0.099,551
2020-02-16T12:00:05,42.805,6.029,CST-1368DR,6771,9491,15232,0.100,551
2020-02-16T12:03:06,42.805,6.029,CST-1368DR,6771,9492,15234,0.099,551
2020-02-16T12:06:08,42.805,6.029,CST-1368DR,6771,9493,15236,0.099,551
2020-02-16T12:09:10,42.805,6.029,CST-1368DR,6771,9488,15228,0.101,551
2020-02-16T12:12:11,42.805,6.029,CST-1368DR,6771,9493,15236,0.099,551
2020-02-16T12:15:13,42.805,6.029,CST-1368DR,6771,9492,15235,0.099,551
2020-02-16T12:18:15,42.805,6.029,CST-1368DR,6771,9493,15236,0.099,551
2020-02-16T12:21:16,42.805,6.029,CST-1368DR,6771,9491,15233,0.099,551
2020-02-16T12:24:18,42.805,6.029,CST-1368DR,6771,9491,15233,0.099,551
2020-02-16T12:27:19,42.805,6.029,CST-1368DR,6771,9490,15232,0.100,551
2020-02-16T12:30:22,42.805,6.029,CST-1368DR,6771,9491,15232,0.100,551
2020-02-16T12:33:24,42.805,6.029,CST-1368DR,6771,9491,15233,0.099,551
2020-02-16T12:36:25,42.805,6.029,CST-1368DR,6771,9493,15236,0.099,551
2020-02-16T12:39:27,42.805,6.029,CST-1368DR,6771,9492,15235,0.099,551
2020-02-16T12:42:28,42.805,6.029,CST-1368DR,6771,9487,15227,0.101,550
2020-02-16T12:45:30,42.805,6.029,CST-1368DR,6771,9492,15235,0.099,551
2020-02-16T12:48:32,42.805,6.029,CST-1368DR,6771,9492,15235,0.099,551
2020-02-16T12:51:33,42.805,6.029,CST-1368DR,6771,9492,15234,0.099,550
2020-02-16T12:54:35,42.805,6.029,CST-1368DR,6771,9492,15235,0.099,551
2020-02-16T12:57:37,42.805,6.029,CST-1368DR,6771,9491,15233,0.099,551
2020-02-16T13:00:38,42.805,6.029,CST-1368DR,6771,9486,15224,0.102,551
2020-02-16T13:03:40,42.805,6.029,CST-1368DR,6771,9492,15234,0.099,551
2020-02-16T13:06:41,42.805,6.029,CST-1368DR,6771,9492,15234,0.099,551
2020-02-16T13:09:43,42.805,6.029,CST-1368DR,6771,9491,15233,0.099,551
2020-02-16T13:12:45,42.805,6.029,CST-1368DR,6771,9493,15236,0.099,551
2020-02-16T13:15:46,42.805,6.029,CST-1368DR,6771,9493,15236,0.099,551
2020-02-16T13:18:48,42.805,6.029,CST-1368DR,6771,9492,15235,0.099,551
2020-02-16T13:21:50,42.805,6.029,CST-1368DR,6771,9493,15236,0.099,551
2020-02-16T13:24:51,42.805,6.029,CST-1368DR,6771,9492,15235,0.099,551
2020-02-16T13:27:53,42.805,6.029,CST-1368DR,6771,9492,15234,0.099,551
2020-02-16T13:30:55,42.805,6.029,CST-1368DR,6771,9491,15232,0.100,551
2020-02-16T13:33:57,42.805,6.029,CST-1368DR,6771,9492,15234,0.099,551
2020-02-16T13:36:59,42.805,6.029,CST-1368DR,6770,9492,15237,0.098,551
2020-02-16T13:40:00,42.805,6.029,CST-1368DR,6771,9492,15234,0.099,551
2020-02-16T13:43:02,42.805,6.029,CST-1368DR,6770,9492,15237,0.098,550
2020-02-16T13:46:04,42.805,6.029,CST-1368DR,6770,9490,15234,0.099,551
2020-02-16T13:49:05,42.805,6.029,CST-1368DR,6770,9490,15233,0.099,551
2020-02-16T13:52:07,42.805,6.029,CST-1368DR,6770,9491,15235,0.099,551
2020-02-16T13:55:09,42.805,6.029,CST-1368DR,6770,9491,15235,0.099,551
2020-02-16T13:58:10,42.805,6.029,CST-1368DR,6770,9491,15235,0.099,551
2020-02-16T14:01:12,42.805,6.029,CST-1368DR,6770,9492,15236,0.099,551
2020-02-16T14:04:14,42.805,6.029,CST-1368DR,6770,9492,15237,0.098,551
2020-02-16T14:07:16,42.805,6.029,CST-1368DR,6770,9492,15237,0.098,551
2020-02-16T14:10:17,42.805,6.029,CST-1368DR,6770,9492,15237,0.098,551
2020-02-16T14:13:19,42.805,6.029,CST-1368DR,6770,9491,15236,0.099,550
2020-02-16T14:16:20,42.805,6.029,CST-1368DR,6770,9491,15236,0.099,550
2020-02-16T14:19:22,42.805,6.029,CST-1368DR,6770,9491,15236,0.099,551
2020-02-16T14:22:24,42.805,6.029,CST-1368DR,6770,9492,15237,0.098,551
2020-02-16T14:25:25,42.805,6.029,CST-1368DR,6770,9489,15232,0.100,551
2020-02-16T14:28:27,42.805,6.029,CST-1368DR,6770,9491,15235,0.099,551
2020-02-16T14:31:29,42.805,6.029,CST-1368DR,6770,9492,15237,0.098,551
2020-02-16T14:34:30,42.805,6.029,CST-1368DR,6770,9492,15237,0.098,550
2020-02-16T14:37:32,42.805,6.029,CST-1368DR,6770,9490,15234,0.099,551
2020-02-16T14:40:34,42.805,6.029,CST-1368DR,6770,9492,15236,0.099,551
2020-02-16T14:43:36,42.805,6.029,CST-1368DR,6770,9490,15234,0.099,551
2020-02-16T14:46:38,42.805,6.029,CST-1368DR,6770,9488,15230,0.100,551
2020-02-16T14:49:39,42.805,6.029,CST-1368DR,6770,9489,15233,0.099,551
2020-02-16T14:52:41,42.805,6.029,CST-1368DR,6770,9488,15231,0.100,551
2020-02-16T14:55:43,42.805,6.029,CST-1368DR,6770,9489,15232,0.100,551
2020-02-16T14:58:44,42.805,6.029,CST-1368DR,6770,9488,15231,0.100,551
2020-02-16T15:01:46,42.805,6.029,CST-1368DR,6770,9487,15229,0.100,551
2020-02-16T15:04:47,42.805,6.029,CST-1368DR,6770,9488,15230,0.100,551
2020-02-16T15:07:49,42.805,6.029,CST-1368DR,6770,9488,15230,0.100,551
2020-02-16T15:10:51,42.805,6.029,CST-1368DR,6770,9489,15232,0.100,551
2020-02-16T15:13:52,42.805,6.029,CST-1368DR,6770,9488,15231,0.100,551
2020-02-16T15:16:54,42.805,6.029,CST-1368DR,6770,9488,15231,0.100,551
2020-02-16T15:19:56,42.805,6.029,CST-1368DR,6770,9488,15230,0.100,551
2020-02-16T15:22:57,42.805,6.029,CST-1368DR,6770,9489,15232,0.100,551
2020-02-16T15:25:59,42.805,6.029,CST-1368DR,6770,9487,15229,0.100,551
2020-02-16T15:29:01,42.805,6.029,CST-1368DR,6770,9488,15230,0.100,551
2020-02-16T15:32:02,42.805,6.029,CST-1368DR,6770,9488,15230,0.100,551
2020-02-16T15:35:04,42.805,6.029,CST-1368DR,6770,9487,15229,0.100,551
2020-02-16T15:38:05,42.805,6.029,CST-1368DR,6770,9487,15229,0.100,551
2020-02-16T15:41:07,42.805,6.029,CST-1368DR,6770,9488,15230,0.100,551
2020-02-16T15:44:09,42.805,6.029,CST-1368DR,6770,9486,15228,0.101,551
2020-02-16T15:47:10,42.805,6.029,CST-1368DR,6770,9487,15229,0.100,551
2020-02-16T15:50:12,42.805,6.029,CST-1368DR,6770,9482,15220,0.103,551
2020-02-16T15:53:14,42.805,6.029,CST-1368DR,6770,9485,15226,0.101,551
2020-02-16T15:56:15,42.805,6.029,CST-1368DR,6770,9485,15226,0.101,551
2020-02-16T15:59:17,42.805,6.029,CST-1368DR,6770,9487,15229,0.100,551
2020-02-16T16:02:19,42.805,6.029,CST-1368DR,6770,9486,15227,0.101,551
2020-02-16T16:05:20,42.805,6.029,CST-1368DR,6770,9486,15227,0.101,551
2020-02-16T16:08:22,42.805,6.029,CST-1368DR,6770,9487,15229,0.100,550
2020-02-16T16:11:24,42.805,6.029,CST-1368DR,6770,9486,15227,0.101,551
2020-02-16T16:14:25,42.805,6.029,CST-1368DR,6770,9485,15226,0.101,551
2020-02-16T16:17:27,42.805,6.029,CST-1368DR,6770,9485,15226,0.101,551
2020-02-16T16:20:28,42.805,6.029,CST-1368DR,6770,9486,15227,0.101,551
2020-02-16T16:23:30,42.805,6.029,CST-1368DR,6770,9486,15227,0.101,551
2020-02-16T16:26:32,42.805,6.029,CST-1368DR,6770,9485,15226,0.101,551
2020-02-16T16:29:33,42.805,6.029,CST-1368DR,6770,9487,15229,0.100,551
2020-02-16T16:32:35,42.805,6.029,CST-1368DR,6770,9487,15229,0.100,551
2020-02-16T16:35:37,42.805,6.029,CST-1368DR,6770,9486,15227,0.101,551
2020-02-16T16:38:39,42.805,6.029,CST-1368DR,6770,9487,15229,0.100,550
2020-02-16T16:41:40,42.805,6.029,CST-1368DR,6770,9487,15229,0.100,551
2020-02-16T16:44:42,42.805,6.029,CST-1368DR,6770,9488,15230,0.100,551
2020-02-16T16:47:43,42.805,6.029,CST-1368DR,6770,9487,15229,0.100,551
2020-02-16T16:50:45,42.805,6.029,CST-1368DR,6770,9485,15226,0.101,551
2020-02-16T16:53:47,42.805,6.029,CST-1368DR,6770,9486,15227,0.101,551